Weather History for PASA - June, 2013

Change the Weather History Date:

Thursday, June 20, 2013

  Actual Average Record
Temperature  
Mean Temperature 47 °F -  
Max Temperature 55 °F - - ()
Min Temperature 39 °F - - ()
Degree Days  
Heating Degree Days 18    
Moisture  
Dew Point 42 °F    
Average Humidity 77    
Maximum Humidity 93    
Minimum Humidity 67    
Precipitation  
Precipitation 0.00 in - - ()
Sea Level Pressure  
Sea Level Pressure 29.67 in    
Wind  
Wind Speed 11 mph (SSE)    
Max Wind Speed 34 mph    
Max Gust Speed 43 mph    
Visibility 10 miles    
Events      
T = Trace of Precipitation, MM = Missing Value Source: NWS Daily Summary

Daily Weather History Graph

Daily Weather History Graph

Search for Another Location

Airport or City:

Trip Planner

Search our weather history database for the weather conditions in past years. The results will help you decide how hot, cold, wet, or windy it might be!

Date:

Astronomy

Jun. 20, 2013 Rise Set
Actual Time 5:00 AM AKDT 1:47 AM AKDT
Civil Twilight Sun does not rise Sun does not rise
Nautical Twilight Sun does not rise Sun does not rise
Astronomical Twilight Sun does not rise Sun does not rise
Moon 10:05 PM AKDT (6/20) 3:53 AM AKDT (6/20)
Length of Visible Light 24h 00m
Length of Day
20h 46m
Waxing Gibbous, 90% of the Moon is Illuminated
Jun 20
Waxing Gibbous
Jun 23
Full
Jun 29
Last Quarter
Jul 7
New
Jul 15
First Quarter

Hourly Weather History & Observations

Time (AKDT) Temp. Windchill Dew Point Humidity Pressure Visibility Wind Dir Wind Speed Gust Speed Precip Events Conditions
12:56 AM 42.8 °F 40.1 °F 39.2 °F 87% 29.59 in 10.0 mi ENE 4.6 mph - N/A   Clear
1:16 AM 42.8 °F - 37.4 °F 81% 29.59 in 9.0 mi Calm Calm - N/A   Clear
1:36 AM 41.0 °F 35.2 °F 37.4 °F 87% 29.60 in 10.0 mi East 9.2 mph - N/A   Clear
1:56 AM 39.2 °F 34.2 °F 37.4 °F 93% 29.60 in 10.0 mi East 6.9 mph - N/A   Clear
2:16 AM 41.0 °F - 39.2 °F 93% 29.59 in 10.0 mi Calm Calm - N/A   Clear
2:36 AM 41.0 °F 37.1 °F 37.4 °F 87% 29.59 in 8.0 mi West 5.8 mph - N/A   Clear
2:56 AM 39.2 °F 34.2 °F 37.4 °F 93% 29.58 in 9.0 mi WSW 6.9 mph - N/A   Clear
3:16 AM 39.2 °F 35.0 °F 37.4 °F 93% 29.59 in 10.0 mi WSW 5.8 mph - N/A   Clear
3:36 AM 41.0 °F 38.0 °F 37.4 °F 87% 29.59 in 6.0 mi West 4.6 mph - N/A   Clear
3:56 AM 39.2 °F - 37.4 °F 93% 29.59 in 9.0 mi Calm Calm - N/A   Clear
4:16 AM 39.2 °F 35.0 °F 37.4 °F 93% 29.60 in 10.0 mi ENE 5.8 mph - N/A   Clear
4:36 AM 41.0 °F 37.1 °F 37.4 °F 87% 29.61 in 10.0 mi East 5.8 mph - N/A   Clear
4:56 AM 42.8 °F 40.1 °F 39.2 °F 87% 29.60 in 10.0 mi SW 4.6 mph - N/A   Clear
5:16 AM 42.8 °F - 39.2 °F 87% 29.61 in 10.0 mi Calm Calm - N/A   Clear
5:36 AM 42.8 °F 39.3 °F 37.4 °F 81% 29.61 in 10.0 mi NNW 5.8 mph - N/A   Clear
5:56 AM 42.8 °F 39.3 °F 37.4 °F 81% 29.61 in 10.0 mi North 5.8 mph - N/A   Clear
6:16 AM 50.0 °F - 44.6 °F 82% 29.60 in 10.0 mi NE 8.1 mph - N/A   Clear
6:36 AM 53.6 °F - 44.6 °F 72% 29.60 in 10.0 mi SW 8.1 mph 21.9 mph N/A   Clear
6:56 AM 53.6 °F - 44.6 °F 72% 29.60 in 10.0 mi South 16.1 mph 27.6 mph N/A   Scattered Clouds
7:16 AM 53.6 °F - 46.4 °F 77% 29.61 in 10.0 mi NE 13.8 mph 18.4 mph N/A   Mostly Cloudy
7:36 AM 53.6 °F - 46.4 °F 77% 29.61 in 10.0 mi South 12.7 mph 28.8 mph N/A   Mostly Cloudy
7:56 AM 50.0 °F - 44.6 °F 82% 29.60 in 10.0 mi SSW 11.5 mph 29.9 mph N/A   Mostly Cloudy
8:16 AM 50.0 °F - 44.6 °F 82% 29.60 in 10.0 mi South 31.1 mph 39.1 mph N/A   Overcast
8:36 AM 50.0 °F - 44.6 °F 82% 29.63 in 10.0 mi South 15.0 mph 27.6 mph N/A   Overcast
8:56 AM 48.2 °F - 42.8 °F 82% 29.62 in 10.0 mi South 34.5 mph 41.4 mph N/A   Mostly Cloudy
9:16 AM 48.2 °F - 42.8 °F 82% 29.64 in 10.0 mi SSE 21.9 mph 36.8 mph N/A   Partly Cloudy
9:36 AM 48.2 °F - 42.8 °F 82% 29.65 in 10.0 mi SE 8.1 mph - N/A   Partly Cloudy
9:56 AM 50.0 °F - 42.8 °F 76% 29.65 in 10.0 mi SSE 20.7 mph 32.2 mph N/A   Partly Cloudy
10:16 AM 48.2 °F - 42.8 °F 82% 29.66 in 10.0 mi South 28.8 mph 32.2 mph N/A   Partly Cloudy
10:36 AM 48.2 °F - 42.8 °F 82% 29.67 in 10.0 mi West 4.6 mph 28.8 mph N/A   Mostly Cloudy
10:56 AM 51.8 °F - 42.8 °F 71% 29.68 in 10.0 mi West 12.7 mph 21.9 mph N/A   Mostly Cloudy
11:16 AM 51.8 °F - 42.8 °F 71% 29.69 in 10.0 mi South 18.4 mph 26.5 mph N/A   Mostly Cloudy
11:36 AM 50.0 °F - 42.8 °F 76% 29.70 in 10.0 mi South 18.4 mph 23.0 mph N/A   Overcast
11:56 AM 51.8 °F - 44.6 °F 76% 29.70 in 10.0 mi West 10.4 mph 16.1 mph N/A   Mostly Cloudy
12:16 PM 51.8 °F - 42.8 °F 71% 29.71 in 10.0 mi SW 6.9 mph 19.6 mph N/A   Mostly Cloudy
12:36 PM 51.8 °F - 42.8 °F 71% 29.73 in 10.0 mi South 16.1 mph 27.6 mph N/A   Scattered Clouds
12:56 PM 53.6 °F - 42.8 °F 67% 29.71 in 10.0 mi North 3.5 mph - N/A   Partly Cloudy
1:16 PM 53.6 °F - 42.8 °F 67% 29.73 in 10.0 mi South 8.1 mph - N/A   Scattered Clouds
1:36 PM 53.6 °F - 42.8 °F 67% 29.70 in 10.0 mi South 31.1 mph 39.1 mph N/A   Scattered Clouds
1:56 PM 53.6 °F - 42.8 °F 67% 29.71 in 10.0 mi South 32.2 mph 42.6 mph N/A   Clear
2:16 PM 53.6 °F - 44.6 °F 72% 29.71 in 10.0 mi South 28.8 mph 41.4 mph N/A   Clear
2:36 PM 55.4 °F - 44.6 °F 67% 29.72 in 10.0 mi SSE 33.4 mph 42.6 mph N/A   Clear
2:56 PM 55.4 °F - 44.6 °F 67% 29.73 in 10.0 mi SSE 28.8 mph 36.8 mph N/A   Clear
3:16 PM 55.4 °F - 44.6 °F 67% 29.74 in 10.0 mi South 26.5 mph 33.4 mph N/A   Clear
3:36 PM 55.4 °F - 44.6 °F 67% 29.75 in 10.0 mi South 24.2 mph 33.4 mph N/A   Clear
3:56 PM 55.4 °F - 44.6 °F 67% 29.75 in 10.0 mi SSE 25.3 mph 32.2 mph N/A   Clear
4:16 PM 55.4 °F - 44.6 °F 67% 29.76 in 10.0 mi SSE 23.0 mph 29.9 mph N/A   Clear
4:36 PM 55.4 °F - 44.6 °F 67% 29.76 in 10.0 mi SSE 18.4 mph 26.5 mph N/A   Clear
4:56 PM 55.4 °F - 44.6 °F 67% 29.76 in 10.0 mi SSE 24.2 mph 29.9 mph N/A   Clear
5:16 PM 55.4 °F - 46.4 °F 72% 29.77 in 10.0 mi SE 16.1 mph 27.6 mph N/A   Scattered Clouds
5:36 PM 55.4 °F - 44.6 °F 67% 29.78 in 10.0 mi SE 20.7 mph 29.9 mph N/A   Overcast
5:56 PM 55.4 °F - 46.4 °F 72% 29.78 in 10.0 mi SE 21.9 mph 27.6 mph N/A   Overcast
6:16 PM 53.6 °F - 46.4 °F 77% 29.78 in 10.0 mi SE 19.6 mph - N/A   Overcast
6:36 PM 55.4 °F - 46.4 °F 72% 29.78 in 10.0 mi SE 18.4 mph 24.2 mph N/A   Overcast
6:56 PM 55.4 °F - 44.6 °F 67% 29.78 in 10.0 mi SE 20.7 mph 25.3 mph N/A   Overcast
7:16 PM 55.4 °F - 46.4 °F 72% 29.78 in 10.0 mi SE 17.3 mph 24.2 mph N/A   Overcast
7:36 PM 53.6 °F - 44.6 °F 72% 29.78 in 10.0 mi SE 17.3 mph 23.0 mph N/A   Overcast
7:56 PM 53.6 °F - 44.6 °F 72% 29.78 in 10.0 mi SE 19.6 mph 23.0 mph N/A   Overcast
11:56 PM 48.2 °F - 42.8 °F 82% 29.77 in 10.0 mi ESE 23.0 mph 32.2 mph N/A   Partly Cloudy